HB0PJ-13 Weather Reports


time (UTC)temp
F
wind
direction
speed
knots
gust
knots
rain 1hr
in
rain 24hr
in
rain mn
in
humidity
%
barometer
mb
20260506160406 60 0.0 0.0 0.00 0.00 0.00 57 952.4
20260506160205 60 0.0 0.0 0.00 0.00 0.00 57 952.4
20260506155806 60 0.0 0.0 0.00 0.00 0.00 58 952.4
20260506155406 60 0.0 0.0 0.00 0.00 0.00 58 952.5
20260506155006 60 0.0 0.0 0.00 0.00 0.00 58 952.7
20260506154606 60 0.0 0.0 0.00 0.00 0.00 59 952.7
20260506154406 60 0.0 0.0 0.00 0.00 0.00 58 952.7
20260506154206 59 0.0 0.0 0.00 0.00 0.00 58 952.6
20260506154006 59 0.0 0.0 0.00 0.00 0.00 58 952.8
20260506153805 59 0.0 0.0 0.00 0.00 0.00 59 952.7
20260506153406 58 0.0 0.0 0.00 0.00 0.00 57 952.6
20260506153206 58 0.0 0.0 0.00 0.00 0.00 57 952.6
20260506153006 58 0.0 0.0 0.00 0.00 0.00 56 952.6
20260506152805 58 0.0 0.0 0.00 0.00 0.00 59 952.6
20260506152606 58 0.0 0.0 0.00 0.00 0.00 59 952.7
20260506152206 58 0.0 0.0 0.00 0.00 0.00 58 952.6
20260506152005 57 0.0 0.0 0.00 0.00 0.00 59 952.6
20260506151606 57 0.0 0.0 0.00 0.00 0.00 60 952.8
20260506151206 57 0.0 0.0 0.00 0.00 0.00 61 952.9
20260506150806 57 0.0 0.0 0.00 0.00 0.00 60 953.1
20260506150606 56 0.0 0.0 0.00 0.00 0.00 61 953.1
20260506150006 56 0.0 0.0 0.00 0.00 0.00 64 953.0
20260506145806 56 0.0 0.0 0.00 0.00 0.00 64 952.8
20260506145405 56 0.0 0.0 0.00 0.00 0.00 60 952.3
20260506145206 56 0.0 0.0 0.00 0.00 0.00 57 952.1
20260506145006 56 0.0 0.0 0.00 0.00 0.00 55 952.0
20260506144606 57 0.0 0.0 0.00 0.00 0.00 54 951.8
20260506144405 57 0.0 0.0 0.00 0.00 0.00 53 951.9
20260506144206 57 0.0 0.0 0.00 0.00 0.00 52 951.6
20260506144006 57 0.0 0.0 0.00 0.00 0.00 52 951.4
20260506143806 58 0.0 0.0 0.00 0.00 0.00 51 951.4
20260506143405 59 0.0 0.0 0.00 0.00 0.00 50 951.4
20260506143206 59 0.0 0.0 0.00 0.00 0.00 50 951.5
20260506142806 59 0.0 0.0 0.00 0.00 0.00 50 951.1
20260506142406 60 0.0 0.0 0.00 0.00 0.00 47 951.1
20260506142206 61 0.0 0.0 0.00 0.00 0.00 46 950.9
20260506142006 61 0.0 0.0 0.00 0.00 0.00 47 951.0
20260506141805 62 0.0 0.0 0.00 0.00 0.00 48 951.0
20260506141606 62 0.0 0.0 0.00 0.00 0.00 45 950.8
20260506141405 62 0.0 0.0 0.00 0.00 0.00 44 951.0
20260506141206 62 0.0 0.0 0.00 0.00 0.00 44 950.8
20260506140805 63 0.0 0.0 0.00 0.00 0.00 44 950.6
20260506140606 63 0.0 0.0 0.00 0.00 0.00 44 950.8
20260506140205 63 0.0 0.0 0.00 0.00 0.00 44 950.6
20260506140005 63 0.0 0.0 0.00 0.00 0.00 44 950.6
20260506135806 64 0.0 0.0 0.00 0.00 0.00 43 950.5
20260506135606 64 0.0 0.0 0.00 0.00 0.00 43 950.6
20260506135406 64 0.0 0.0 0.00 0.00 0.00 42 950.5
20260506135205 66 0.0 0.0 0.00 0.00 0.00 41 950.6
20260506134806 68 0.0 0.0 0.00 0.00 0.00 41 950.4
20260506134606 69 0.0 0.0 0.00 0.00 0.00 42 950.3
20260506134406 69 0.0 0.0 0.00 0.00 0.00 42 950.2
20260506134205 69 0.0 0.0 0.00 0.00 0.00 43 950.2
20260506134005 69 0.0 0.0 0.00 0.00 0.00 43 950.1
20260506133806 69 0.0 0.0 0.00 0.00 0.00 42 950.1
20260506133605 69 0.0 0.0 0.00 0.00 0.00 42 950.0
20260506133406 69 0.0 0.0 0.00 0.00 0.00 42 950.0
20260506133206 69 0.0 0.0 0.00 0.00 0.00 42 950.0
20260506132806 70 0.0 0.0 0.00 0.00 0.00 42 949.9
20260506132605 70 0.0 0.0 0.00 0.00 0.00 41 949.9
20260506132405 70 0.0 0.0 0.00 0.00 0.00 42 949.9
20260506131806 70 0.0 0.0 0.00 0.00 0.00 42 949.8
20260506131606 70 0.0 0.0 0.00 0.00 0.00 42 949.8
20260506131406 70 0.0 0.0 0.00 0.00 0.00 42 949.8
20260506131206 70 0.0 0.0 0.00 0.00 0.00 42 949.8
20260506130806 70 0.0 0.0 0.00 0.00 0.00 42 949.7
20260506130605 70 0.0 0.0 0.00 0.00 0.00 42 949.7
20260506130405 70 0.0 0.0 0.00 0.00 0.00 42 949.7
20260506130205 70 0.0 0.0 0.00 0.00 0.00 42 949.7
20260506130006 70 0.0 0.0 0.00 0.00 0.00 43 949.7
20260506125806 69 0.0 0.0 0.00 0.00 0.00 43 949.7
20260506125606 69 0.0 0.0 0.00 0.00 0.00 42 949.8
20260506125405 69 0.0 0.0 0.00 0.00 0.00 43 949.8
20260506125205 69 0.0 0.0 0.00 0.00 0.00 43 949.8
20260506125005 69 0.0 0.0 0.00 0.00 0.00 42 949.8
20260506124805 69 0.0 0.0 0.00 0.00 0.00 43 949.8
20260506124606 69 0.0 0.0 0.00 0.00 0.00 43 949.7
20260506124405 69 0.0 0.0 0.00 0.00 0.00 43 949.8
20260506124006 68 0.0 0.0 0.00 0.00 0.00 43 949.8
20260506123806 68 0.0 0.0 0.00 0.00 0.00 44 949.8
20260506123605 68 0.0 0.0 0.00 0.00 0.00 44 949.8
20260506123406 68 0.0 0.0 0.00 0.00 0.00 44 949.7
20260506123205 68 0.0 0.0 0.00 0.00 0.00 44 949.7
20260506123005 68 0.0 0.0 0.00 0.00 0.00 44 949.7
20260506122806 68 0.0 0.0 0.00 0.00 0.00 44 949.7
20260506122405 68 0.0 0.0 0.00 0.00 0.00 45 949.7
20260506122206 68 0.0 0.0 0.00 0.00 0.00 45 949.8
20260506122006 67 0.0 0.0 0.00 0.00 0.00 45 949.8
20260506121805 67 0.0 0.0 0.00 0.00 0.00 46 949.8
20260506121606 68 0.0 0.0 0.00 0.00 0.00 45 949.8
20260506121205 67 0.0 0.0 0.00 0.00 0.00 45 949.8
20260506121006 67 0.0 0.0 0.00 0.00 0.00 46 949.9
20260506120805 67 0.0 0.0 0.00 0.00 0.00 46 949.8
20260506120406 67 0.0 0.0 0.00 0.00 0.00 46 949.7
20260506120206 67 0.0 0.0 0.00 0.00 0.00 46 949.8
20260506115805 66 0.0 0.0 0.00 0.00 0.00 48 949.9
20260506115605 66 0.0 0.0 0.00 0.00 0.00 47 950.0
20260506115405 66 0.0 0.0 0.00 0.00 0.00 47 950.0
20260506115205 65 0.0 0.0 0.00 0.00 0.00 48 950.0
20260506115005 65 0.0 0.0 0.00 0.00 0.00 48 950.0
20260506114806 65 0.0 0.0 0.00 0.00 0.00 48 950.1
20260506114605 65 0.0 0.0 0.00 0.00 0.00 49 950.2
20260506114405 65 0.0 0.0 0.00 0.00 0.00 49 950.3
20260506114206 65 0.0 0.0 0.00 0.00 0.00 49 950.2
20260506113805 65 0.0 0.0 0.00 0.00 0.00 49 950.4
20260506113605 65 0.0 0.0 0.00 0.00 0.00 48 950.4
20260506113405 64 0.0 0.0 0.00 0.00 0.00 49 950.4
20260506113206 64 0.0 0.0 0.00 0.00 0.00 49 950.4
20260506112805 64 0.0 0.0 0.00 0.00 0.00 50 950.5
20260506112606 64 0.0 0.0 0.00 0.00 0.00 50 950.4
20260506112405 64 0.0 0.0 0.00 0.00 0.00 49 950.4
20260506112006 64 0.0 0.0 0.00 0.00 0.00 48 950.3
20260506111606 64 0.0 0.0 0.00 0.00 0.00 49 950.2
20260506111406 64 0.0 0.0 0.00 0.00 0.00 49 950.2
20260506111006 64 0.0 0.0 0.00 0.00 0.00 48 950.1
20260506110805 64 0.0 0.0 0.00 0.00 0.00 48 950.1
20260506110605 64 0.0 0.0 0.00 0.00 0.00 48 950.2
20260506110205 64 0.0 0.0 0.00 0.00 0.00 48 950.2
20260506110006 64 0.0 0.0 0.00 0.00 0.00 48 950.1
20260506105805 65 0.0 0.0 0.00 0.00 0.00 48 950.1
20260506105405 65 0.0 0.0 0.00 0.00 0.00 49 950.0
20260506105205 65 0.0 0.0 0.00 0.00 0.00 49 950.0
20260506105006 65 0.0 0.0 0.00 0.00 0.00 49 950.0
20260506104806 65 0.0 0.0 0.00 0.00 0.00 49 950.0
20260506104405 65 0.0 0.0 0.00 0.00 0.00 49 949.9
20260506104205 65 0.0 0.0 0.00 0.00 0.00 50 949.9
20260506104006 65 0.0 0.0 0.00 0.00 0.00 51 950.0
20260506103805 64 0.0 0.0 0.00 0.00 0.00 51 950.0
20260506103605 65 0.0 0.0 0.00 0.00 0.00 51 950.0
20260506103405 65 0.0 0.0 0.00 0.00 0.00 50 950.0
20260506103006 64 0.0 0.0 0.00 0.00 0.00 51 950.2
20260506102805 64 0.0 0.0 0.00 0.00 0.00 52 950.2
20260506102405 64 0.0 0.0 0.00 0.00 0.00 52 950.3
20260506102205 64 0.0 0.0 0.00 0.00 0.00 52 950.3
20260506101806 64 0.0 0.0 0.00 0.00 0.00 52 950.4
20260506101605 64 0.0 0.0 0.00 0.00 0.00 51 950.4
20260506101405 64 0.0 0.0 0.00 0.00 0.00 51 950.3
20260506101205 64 0.0 0.0 0.00 0.00 0.00 50 950.4
20260506101005 64 0.0 0.0 0.00 0.00 0.00 50 950.4
20260506100806 64 0.0 0.0 0.00 0.00 0.00 49 950.5
20260506100302 64 0.0 0.0 0.00 0.00 0.00 49 950.6
20260506095902 64 0.0 0.0 0.00 0.00 0.00 48 950.5
20260506095702 64 0.0 0.0 0.00 0.00 0.00 48 950.4
20260506095502 64 0.0 0.0 0.00 0.00 0.00 49 950.4
20260506095305 64 0.0 0.0 0.00 0.00 0.00 48 950.4
20260506095102 64 0.0 0.0 0.00 0.00 0.00 48 950.4
20260506094902 64 0.0 0.0 0.00 0.00 0.00 48 950.4
20260506094702 64 0.0 0.0 0.00 0.00 0.00 47 950.5
20260506094502 64 0.0 0.0 0.00 0.00 0.00 48 950.6
20260506094102 64 0.0 0.0 0.00 0.00 0.00 48 950.7
20260506093702 64 0.0 0.0 0.00 0.00 0.00 48 950.6
20260506093502 64 0.0 0.0 0.00 0.00 0.00 48 950.6
20260506093302 64 0.0 0.0 0.00 0.00 0.00 48 950.6
20260506093102 64 0.0 0.0 0.00 0.00 0.00 49 950.6
20260506092702 64 0.0 0.0 0.00 0.00 0.00 48 950.5
20260506092502 64 0.0 0.0 0.00 0.00 0.00 48 950.5
20260506092302 64 0.0 0.0 0.00 0.00 0.00 48 950.5
20260506092102 64 0.0 0.0 0.00 0.00 0.00 48 950.5
20260506091902 64 0.0 0.0 0.00 0.00 0.00 48 950.5
20260506091702 64 0.0 0.0 0.00 0.00 0.00 48 950.5
20260506091502 64 0.0 0.0 0.00 0.00 0.00 49 950.5
20260506091302 64 0.0 0.0 0.00 0.00 0.00 50 950.5
20260506090902 64 0.0 0.0 0.00 0.00 0.00 50 950.5
20260506090502 64 0.0 0.0 0.00 0.00 0.00 50 950.6
20260506090302 64 0.0 0.0 0.00 0.00 0.00 50 950.6
20260506085702 63 0.0 0.0 0.00 0.00 0.00 51 950.5
20260506085502 63 0.0 0.0 0.00 0.00 0.00 51 950.5
20260506085102 62 0.0 0.0 0.00 0.00 0.00 52 950.6
20260506084902 62 0.0 0.0 0.00 0.00 0.00 52 950.7
20260506084702 62 0.0 0.0 0.00 0.00 0.00 52 950.7
20260506084502 62 0.0 0.0 0.00 0.00 0.00 52 950.7
20260506084302 62 0.0 0.0 0.00 0.00 0.00 52 950.7
20260506084102 62 0.0 0.0 0.00 0.00 0.00 52 950.7
20260506083902 61 0.0 0.0 0.00 0.00 0.00 53 950.7
20260506083702 61 0.0 0.0 0.00 0.00 0.00 53 950.7
20260506083502 61 0.0 0.0 0.00 0.00 0.00 53 950.7
20260506083302 61 0.0 0.0 0.00 0.00 0.00 52 950.8
20260506082902 61 0.0 0.0 0.00 0.00 0.00 52 950.7
20260506082702 61 0.0 0.0 0.00 0.00 0.00 52 950.7
20260506082502 61 0.0 0.0 0.00 0.00 0.00 51 950.7
20260506082304 61 0.0 0.0 0.00 0.00 0.00 51 950.8
20260506082102 61 0.0 0.0 0.00 0.00 0.00 51 950.7
20260506081902 61 0.0 0.0 0.00 0.00 0.00 52 950.7
20260506081702 61 0.0 0.0 0.00 0.00 0.00 52 950.6
20260506081502 61 0.0 0.0 0.00 0.00 0.00 52 950.7
20260506081302 61 0.0 0.0 0.00 0.00 0.00 52 950.8
20260506080902 61 0.0 0.0 0.00 0.00 0.00 52 950.9
20260506080702 61 0.0 0.0 0.00 0.00 0.00 53 950.9
20260506080502 60 0.0 0.0 0.00 0.00 0.00 53 950.9
20260506080302 60 0.0 0.0 0.00 0.00 0.00 53 950.9
20260506073502 59 0.0 0.0 0.00 0.00 0.00 55 950.9
20260506073302 59 0.0 0.0 0.00 0.00 0.00 55 950.9
20260506073102 59 0.0 0.0 0.00 0.00 0.00 55 950.8
20260506072902 59 0.0 0.0 0.00 0.00 0.00 55 950.8
20260506072702 59 0.0 0.0 0.00 0.00 0.00 56 950.8
20260506072502 59 0.0 0.0 0.00 0.00 0.00 57 950.9
20260506072305 59 0.0 0.0 0.00 0.00 0.00 57 950.8
20260506072102 59 0.0 0.0 0.00 0.00 0.00 57 950.9
20260506071902 59 0.0 0.0 0.00 0.00 0.00 57 950.9
20260506071702 59 0.0 0.0 0.00 0.00 0.00 57 950.8
20260506071302 58 0.0 0.0 0.00 0.00 0.00 58 950.9
20260506071102 58 0.0 0.0 0.00 0.00 0.00 58 950.9
20260506070902 58 0.0 0.0 0.00 0.00 0.00 57 950.9
20260506070702 58 0.0 0.0 0.00 0.00 0.00 56 950.9
20260506070502 58 0.0 0.0 0.00 0.00 0.00 56 950.9
20260506070302 59 0.0 0.0 0.00 0.00 0.00 57 950.8
20260506062502 57 0.0 0.0 0.00 0.00 0.00 59 951.0
20260506062305 57 0.0 0.0 0.00 0.00 0.00 59 950.9
20260506062102 57 0.0 0.0 0.00 0.00 0.00 59 950.8
20260506061902 57 0.0 0.0 0.00 0.00 0.00 59 950.9
20260506061502 57 0.0 0.0 0.00 0.00 0.00 59 950.9
20260506061302 57 0.0 0.0 0.00 0.00 0.00 59 951.0
20260506060902 57 0.0 0.0 0.00 0.00 0.00 59 951.0
20260506060702 57 0.0 0.0 0.00 0.00 0.00 59 951.1
20260506060502 57 0.0 0.0 0.00 0.00 0.00 59 951.0
20260506060301 57 0.0 0.0 0.00 0.00 0.00 59 951.1
20260506051301 56 0.0 0.0 0.00 0.00 0.00 59 951.1
20260506051102 56 0.0 0.0 0.00 0.00 0.00 59 951.1
20260506050901 56 0.0 0.0 0.00 0.00 0.00 59 951.1
20260506050702 56 0.0 0.0 0.00 0.00 0.00 59 951.1
20260506050502 56 0.0 0.0 0.00 0.00 0.00 59 951.2
20260506050301 56 0.0 0.0 0.00 0.00 0.00 59 951.1
20260506045102 56 0.0 0.0 0.00 0.00 0.00 59 951.2
20260506044902 56 0.0 0.0 0.00 0.00 0.00 60 951.2
20260506044702 56 0.0 0.0 0.00 0.00 0.00 60 951.2
20260506044501 56 0.0 0.0 0.00 0.00 0.00 59 951.2
20260506044302 56 0.0 0.0 0.00 0.00 0.00 59 951.2
20260506043902 56 0.0 0.0 0.00 0.00 0.00 59 951.3
20260506043702 56 0.0 0.0 0.00 0.00 0.00 60 951.4
20260506043502 56 0.0 0.0 0.00 0.00 0.00 60 951.3
20260506043302 56 0.0 0.0 0.00 0.00 0.00 60 951.3
20260506043101 56 0.0 0.0 0.00 0.00 0.00 60 951.3
20260506042902 56 0.0 0.0 0.00 0.00 0.00 59 951.3
20260506042502 56 0.0 0.0 0.00 0.00 0.00 59 951.4
20260506042305 56 0.0 0.0 0.00 0.00 0.00 59 951.5
20260506042102 56 0.0 0.0 0.00 0.00 0.00 59 951.4
20260506041901 56 0.0 0.0 0.00 0.00 0.00 59 951.5
20260506041701 56 0.0 0.0 0.00 0.00 0.00 59 951.5
20260506041501 56 0.0 0.0 0.00 0.00 0.00 59 951.5
20260506041302 56 0.0 0.0 0.00 0.00 0.00 59 951.5
20260506041102 56 0.0 0.0 0.00 0.00 0.00 59 951.5
20260506040902 56 0.0 0.0 0.00 0.00 0.00 59 951.5
20260506040702 56 0.0 0.0 0.00 0.00 0.00 59 951.5
20260506040502 56 0.0 0.0 0.00 0.00 0.00 59 951.5
20260506040301 56 0.0 0.0 0.00 0.00 0.00 59 951.6
20260506035902 56 0.0 0.0 0.00 0.00 0.00 59 951.6
20260506035702 56 0.0 0.0 0.00 0.00 0.00 59 951.6
20260506035502 56 0.0 0.0 0.00 0.00 0.00 59 951.6
20260506035302 57 0.0 0.0 0.00 0.00 0.00 59 951.7
20260506035101 57 0.0 0.0 0.00 0.00 0.00 58 951.8
20260506034902 57 0.0 0.0 0.00 0.00 0.00 58 951.8
20260506034702 57 0.0 0.0 0.00 0.00 0.00 59 951.8
20260506034501 56 0.0 0.0 0.00 0.00 0.00 59 951.8
20260506034301 56 0.0 0.0 0.00 0.00 0.00 59 951.8
20260506033902 56 0.0 0.0 0.00 0.00 0.00 59 951.8
20260506033701 56 0.0 0.0 0.00 0.00 0.00 59 951.9
20260506033502 56 0.0 0.0 0.00 0.00 0.00 59 952.0
20260506033302 56 0.0 0.0 0.00 0.00 0.00 59 952.0
20260506033102 56 0.0 0.0 0.00 0.00 0.00 58 952.0
20260506032902 56 0.0 0.0 0.00 0.00 0.00 58 952.1
20260506032702 56 0.0 0.0 0.00 0.00 0.00 58 952.2
20260506032502 56 0.0 0.0 0.00 0.00 0.00 58 952.1
20260506032305 56 0.0 0.0 0.00 0.00 0.00 58 952.2
20260506031901 56 0.0 0.0 0.00 0.00 0.00 58 952.2
20260506031702 57 0.0 0.0 0.00 0.00 0.00 58 952.2
20260506031502 57 0.0 0.0 0.00 0.00 0.00 58 952.2
20260506031301 57 0.0 0.0 0.00 0.00 0.00 58 952.3
20260506031102 57 0.0 0.0 0.00 0.00 0.00 58 952.4
20260506030902 56 0.0 0.0 0.00 0.00 0.00 58 952.3
20260506030701 56 0.0 0.0 0.00 0.00 0.00 59 952.3
20260506030502 56 0.0 0.0 0.00 0.00 0.00 58 952.3
20260506030301 57 0.0 0.0 0.00 0.00 0.00 58 952.4
20260506025902 57 0.0 0.0 0.00 0.00 0.00 57 952.4
20260506025501 57 0.0 0.0 0.00 0.00 0.00 57 952.2
20260506025305 57 0.0 0.0 0.00 0.00 0.00 57 952.2
20260506025101 57 0.0 0.0 0.00 0.00 0.00 57 952.3
20260506024901 57 0.0 0.0 0.00 0.00 0.00 57 952.4
20260506024502 57 0.0 0.0 0.00 0.00 0.00 58 952.4
20260506024302 57 0.0 0.0 0.00 0.00 0.00 58 952.5
20260506024101 57 0.0 0.0 0.00 0.00 0.00 58 952.6
20260506023902 57 0.0 0.0 0.00 0.00 0.00 58 952.6
20260506023701 57 0.0 0.0 0.00 0.00 0.00 58 952.6
20260506023102 56 0.0 0.0 0.00 0.00 0.00 58 952.6
20260506022902 56 0.0 0.0 0.00 0.00 0.00 58 952.7
20260506022702 57 0.0 0.0 0.00 0.00 0.00 58 952.7
20260506022501 57 0.0 0.0 0.00 0.00 0.00 58 952.8
20260506022102 56 0.0 0.0 0.00 0.00 0.00 58 952.9
20260506021905 56 0.0 0.0 0.00 0.00 0.00 58 952.9
20260506021502 57 0.0 0.0 0.00 0.00 0.00 57 953.0
20260506021302 57 0.0 0.0 0.00 0.00 0.00 57 953.0
20260506021102 57 0.0 0.0 0.00 0.00 0.00 57 953.0
20260506020902 57 0.0 0.0 0.00 0.00 0.00 57 952.9
20260506020702 57 0.0 0.0 0.00 0.00 0.00 57 952.9
20260506020502 57 0.0 0.0 0.00 0.00 0.00 57 952.8
20260506020301 57 0.0 0.0 0.00 0.00 0.00 57 952.8
20260506015901 57 0.0 0.0 0.00 0.00 0.00 57 953.0
20260506015702 57 0.0 0.0 0.00 0.00 0.00 57 953.0
20260506015502 57 0.0 0.0 0.00 0.00 0.00 57 953.0
20260506015302 57 0.0 0.0 0.00 0.00 0.00 57 952.9
20260506015101 57 0.0 0.0 0.00 0.00 0.00 57 952.8
20260506014702 57 0.0 0.0 0.00 0.00 0.00 57 952.8
20260506014301 57 0.0 0.0 0.00 0.00 0.00 57 952.8
20260506014101 57 0.0 0.0 0.00 0.00 0.00 57 952.8
20260506013902 57 0.0 0.0 0.00 0.00 0.00 57 952.9
20260506013702 57 0.0 0.0 0.00 0.00 0.00 57 952.9
20260506013502 57 0.0 0.0 0.00 0.00 0.00 57 953.0
20260506013302 57 0.0 0.0 0.00 0.00 0.00 57 953.0
20260506013102 57 0.0 0.0 0.00 0.00 0.00 57 953.0
20260506012702 57 0.0 0.0 0.00 0.00 0.00 56 953.1
20260506012502 57 0.0 0.0 0.00 0.00 0.00 56 953.2
20260506012101 57 0.0 0.0 0.00 0.00 0.00 56 953.1
20260506011902 57 0.0 0.0 0.00 0.00 0.00 56 953.1
20260506011702 57 0.0 0.0 0.00 0.00 0.00 55 953.1
20260506011502 57 0.0 0.0 0.00 0.00 0.00 55 953.2
20260506011301 57 0.0 0.0 0.00 0.00 0.00 55 953.1
20260506011102 57 0.0 0.0 0.00 0.00 0.00 55 953.1
20260506010901 57 0.0 0.0 0.00 0.00 0.00 55 953.1
20260506010702 57 0.0 0.0 0.00 0.00 0.00 55 953.1
20260506010501 57 0.0 0.0 0.00 0.00 0.00 55 953.2
20260506010302 57 0.0 0.0 0.00 0.00 0.00 55 953.2
20260506005902 57 0.0 0.0 0.00 0.00 0.00 55 953.1
20260506005702 57 0.0 0.0 0.00 0.00 0.00 55 953.2
20260506005502 58 0.0 0.0 0.00 0.00 0.00 55 953.2
20260506005302 57 0.0 0.0 0.00 0.00 0.00 55 953.2
20260506005102 57 0.0 0.0 0.00 0.00 0.00 55 953.3
20260506004902 58 0.0 0.0 0.00 0.00 0.00 54 953.2
20260506004701 58 0.0 0.0 0.00 0.00 0.00 54 953.3
20260506004501 58 0.0 0.0 0.00 0.00 0.00 54 953.3
20260506004101 58 0.0 0.0 0.00 0.00 0.00 54 953.3
20260506003902 58 0.0 0.0 0.00 0.00 0.00 54 953.3
20260506003702 58 0.0 0.0 0.00 0.00 0.00 54 953.3
20260506003501 58 0.0 0.0 0.00 0.00 0.00 54 953.2
20260506003301 58 0.0 0.0 0.00 0.00 0.00 54 953.2
20260506003102 58 0.0 0.0 0.00 0.00 0.00 54 953.2
20260506002902 58 0.0 0.0 0.00 0.00 0.00 54 953.2
20260506002701 58 0.0 0.0 0.00 0.00 0.00 54 953.3
20260506002501 58 0.0 0.0 0.00 0.00 0.00 54 953.4
20260506002301 58 0.0 0.0 0.00 0.00 0.00 53 953.4
20260506002102 58 0.0 0.0 0.00 0.00 0.00 54 953.5
20260506001902 58 0.0 0.0 0.00 0.00 0.00 53 953.5
20260506001702 58 0.0 0.0 0.00 0.00 0.00 54 953.5
20260506001502 58 0.0 0.0 0.00 0.00 0.00 54 953.4
20260506001302 58 0.0 0.0 0.00 0.00 0.00 54 953.5
20260506000901 58 0.0 0.0 0.00 0.00 0.00 54 953.7
20260506000702 58 0.0 0.0 0.00 0.00 0.00 54 953.7
20260506000302 58 0.0 0.0 0.00 0.00 0.00 54 953.8
20260505235902 58 0.0 0.0 0.00 0.00 0.00 54 953.8
20260505235701 58 0.0 0.0 0.00 0.00 0.00 54 953.8
20260505235502 58 0.0 0.0 0.00 0.00 0.00 54 953.8
20260505235101 58 0.0 0.0 0.00 0.00 0.00 54 953.7
20260505234902 58 0.0 0.0 0.00 0.00 0.00 54 953.7
20260505234701 58 0.0 0.0 0.00 0.00 0.00 54 953.6
20260505234502 58 0.0 0.0 0.00 0.00 0.00 54 953.7
20260505234302 58 0.0 0.0 0.00 0.00 0.00 54 953.7
20260505234102 58 0.0 0.0 0.00 0.00 0.00 54 953.7
20260505233902 58 0.0 0.0 0.00 0.00 0.00 54 953.7
20260505233701 58 0.0 0.0 0.00 0.00 0.00 54 953.6
20260505233502 58 0.0 0.0 0.00 0.00 0.00 53 953.5
20260505233301 58 0.0 0.0 0.00 0.00 0.00 53 953.6
20260505233101 58 0.0 0.0 0.00 0.00 0.00 53 953.6
20260505232902 58 0.0 0.0 0.00 0.00 0.00 53 953.7
20260505232702 58 0.0 0.0 0.00 0.00 0.00 53 953.7
20260505232501 58 0.0 0.0 0.00 0.00 0.00 53 953.7
20260505232305 58 0.0 0.0 0.00 0.00 0.00 53 953.7
20260505232101 59 0.0 0.0 0.00 0.00 0.00 53 953.7
20260505231901 59 0.0 0.0 0.00 0.00 0.00 53 953.7
20260505231701 59 0.0 0.0 0.00 0.00 0.00 53 953.7
20260505231302 59 0.0 0.0 0.00 0.00 0.00 52 953.8
20260505231101 59 0.0 0.0 0.00 0.00 0.00 52 953.9
20260505230902 59 0.0 0.0 0.00 0.00 0.00 52 953.8
20260505230502 59 0.0 0.0 0.00 0.00 0.00 52 953.8
20260505225902 59 0.0 0.0 0.00 0.00 0.00 52 953.7
20260505225701 59 0.0 0.0 0.00 0.00 0.00 52 953.8
20260505225502 59 0.0 0.0 0.00 0.00 0.00 52 953.8
20260505225305 59 0.0 0.0 0.00 0.00 0.00 52 953.8
20260505225102 59 0.0 0.0 0.00 0.00 0.00 52 953.7
20260505224902 59 0.0 0.0 0.00 0.00 0.00 52 953.8
20260505224702 59 0.0 0.0 0.00 0.00 0.00 52 953.8
20260505224502 59 0.0 0.0 0.00 0.00 0.00 52 953.8
20260505224302 59 0.0 0.0 0.00 0.00 0.00 52 953.8
20260505224102 59 0.0 0.0 0.00 0.00 0.00 51 953.9
20260505223901 59 0.0 0.0 0.00 0.00 0.00 51 954.0
20260505223701 59 0.0 0.0 0.00 0.00 0.00 51 953.9
20260505223502 59 0.0 0.0 0.00 0.00 0.00 51 953.9
20260505223302 59 0.0 0.0 0.00 0.00 0.00 51 953.9
20260505223102 59 0.0 0.0 0.00 0.00 0.00 51 953.9
20260505222501 60 0.0 0.0 0.00 0.00 0.00 50 953.8
20260505222301 60 0.0 0.0 0.00 0.00 0.00 50 953.8
20260505222101 60 0.0 0.0 0.00 0.00 0.00 50 953.8
20260505221902 60 0.0 0.0 0.00 0.00 0.00 50 953.8
20260505221701 60 0.0 0.0 0.00 0.00 0.00 50 953.7
20260505221501 60 0.0 0.0 0.00 0.00 0.00 50 953.7
20260505221302 60 0.0 0.0 0.00 0.00 0.00 50 953.7
20260505221102 60 0.0 0.0 0.00 0.00 0.00 50 953.7
20260505220901 60 0.0 0.0 0.00 0.00 0.00 50 953.7
20260505220701 60 0.0 0.0 0.00 0.00 0.00 50 953.8
20260505220502 60 0.0 0.0 0.00 0.00 0.00 50 953.9
20260505215902 60 0.0 0.0 0.00 0.00 0.00 49 953.9
20260505215502 60 0.0 0.0 0.00 0.00 0.00 49 953.9
20260505215304 60 0.0 0.0 0.00 0.00 0.00 49 954.0
20260505215101 61 0.0 0.0 0.00 0.00 0.00 49 953.9
20260505214901 61 0.0 0.0 0.00 0.00 0.00 49 954.0
20260505214701 61 0.0 0.0 0.00 0.00 0.00 49 953.9
20260505214501 61 0.0 0.0 0.00 0.00 0.00 49 954.0
20260505214302 61 0.0 0.0 0.00 0.00 0.00 49 954.0
20260505214102 61 0.0 0.0 0.00 0.00 0.00 49 954.1
20260505213901 61 0.0 0.0 0.00 0.00 0.00 48 954.1
20260505213701 61 0.0 0.0 0.00 0.00 0.00 48 954.2
20260505213301 61 0.0 0.0 0.00 0.00 0.00 48 954.1
20260505213102 61 0.0 0.0 0.00 0.00 0.00 48 954.2
20260505212901 61 0.0 0.0 0.00 0.00 0.00 48 954.2
20260505212701 61 0.0 0.0 0.00 0.00 0.00 48 954.2
20260505212502 61 0.0 0.0 0.00 0.00 0.00 48 954.2
20260505212302 61 0.0 0.0 0.00 0.00 0.00 48 954.3
20260505212101 61 0.0 0.0 0.00 0.00 0.00 48 954.3
20260505211901 61 0.0 0.0 0.00 0.00 0.00 48 954.3
20260505211702 61 0.0 0.0 0.00 0.00 0.00 48 954.2
20260505211502 62 0.0 0.0 0.00 0.00 0.00 47 954.3
20260505211301 62 0.0 0.0 0.00 0.00 0.00 47 954.2
20260505210902 62 0.0 0.0 0.00 0.00 0.00 47 954.2
20260505210701 62 0.0 0.0 0.00 0.00 0.00 47 954.1
20260505210502 62 0.0 0.0 0.00 0.00 0.00 47 954.1
20260505210302 62 0.0 0.0 0.00 0.00 0.00 47 954.1
20260505205902 62 0.0 0.0 0.00 0.00 0.00 47 954.0
20260505205502 62 0.0 0.0 0.00 0.00 0.00 47 954.0
20260505205304 62 0.0 0.0 0.00 0.00 0.00 46 954.0
20260505205101 62 0.0 0.0 0.00 0.00 0.00 46 954.0
20260505204902 62 0.0 0.0 0.00 0.00 0.00 46 954.0
20260505204701 62 0.0 0.0 0.00 0.00 0.00 47 954.0
20260505204501 62 0.0 0.0 0.00 0.00 0.00 46 954.0
20260505204101 62 0.0 0.0 0.00 0.00 0.00 46 954.1
20260505203901 62 0.0 0.0 0.00 0.00 0.00 46 954.0
20260505203702 63 0.0 0.0 0.00 0.00 0.00 46 954.0
20260505203502 63 0.0 0.0 0.00 0.00 0.00 46 954.0
20260505203301 63 0.0 0.0 0.00 0.00 0.00 46 954.0
20260505203102 63 0.0 0.0 0.00 0.00 0.00 45 953.9
20260505202901 63 0.0 0.0 0.00 0.00 0.00 45 953.8
20260505202502 63 0.0 0.0 0.00 0.00 0.00 45 953.8
20260505202301 63 0.0 0.0 0.00 0.00 0.00 45 953.8
20260505202101 63 0.0 0.0 0.00 0.00 0.00 45 953.8
20260505201902 63 0.0 0.0 0.00 0.00 0.00 45 953.8
20260505201701 63 0.0 0.0 0.00 0.00 0.00 45 953.8
20260505201502 63 0.0 0.0 0.00 0.00 0.00 45 953.8
20260505201301 63 0.0 0.0 0.00 0.00 0.00 45 953.8
20260505201101 63 0.0 0.0 0.00 0.00 0.00 45 953.8
20260505200902 63 0.0 0.0 0.00 0.00 0.00 45 953.7
20260505200702 63 0.0 0.0 0.00 0.00 0.00 45 953.7
20260505200501 63 0.0 0.0 0.00 0.00 0.00 45 953.7
20260505200301 63 0.0 0.0 0.00 0.00 0.00 45 953.7
20260505195901 63 0.0 0.0 0.00 0.00 0.00 44 953.7
20260505195501 63 0.0 0.0 0.00 0.00 0.00 44 953.6
20260505195304 63 0.0 0.0 0.00 0.00 0.00 44 953.7
20260505195101 63 0.0 0.0 0.00 0.00 0.00 45 953.7
20260505194902 63 0.0 0.0 0.00 0.00 0.00 45 953.6
20260505194701 63 0.0 0.0 0.00 0.00 0.00 45 953.5
20260505194502 63 0.0 0.0 0.00 0.00 0.00 45 953.6
20260505194301 63 0.0 0.0 0.00 0.00 0.00 45 953.6
20260505194102 63 0.0 0.0 0.00 0.00 0.00 45 953.6
20260505193902 63 0.0 0.0 0.00 0.00 0.00 45 953.7
20260505193701 63 0.0 0.0 0.00 0.00 0.00 45 953.6
20260505193502 62 0.0 0.0 0.00 0.00 0.00 45 953.6
20260505193301 62 0.0 0.0 0.00 0.00 0.00 45 953.6
20260505193102 62 0.0 0.0 0.00 0.00 0.00 45 953.7
20260505192901 62 0.0 0.0 0.00 0.00 0.00 45 953.7
20260505192701 63 0.0 0.0 0.00 0.00 0.00 44 953.6
20260505192501 63 0.0 0.0 0.00 0.00 0.00 44 953.6
20260505192305 63 0.0 0.0 0.00 0.00 0.00 44 953.5
20260505192102 63 0.0 0.0 0.00 0.00 0.00 45 953.5
20260505191701 64 0.0 0.0 0.00 0.00 0.00 45 953.5
20260505191501 64 0.0 0.0 0.00 0.00 0.00 44 953.4
20260505191101 64 0.0 0.0 0.00 0.00 0.00 43 953.4
20260505190902 64 0.0 0.0 0.00 0.00 0.00 43 953.4
20260505190702 64 0.0 0.0 0.00 0.00 0.00 42 953.4
20260505190301 64 0.0 0.0 0.00 0.00 0.00 43 953.3
20260505185902 64 0.0 0.0 0.00 0.00 0.00 43 953.2
20260505185501 64 0.0 0.0 0.00 0.00 0.00 46 953.1
20260505185304 64 0.0 0.0 0.00 0.00 0.00 45 953.2
20260505185101 64 0.0 0.0 0.00 0.00 0.00 44 953.1
20260505184901 64 0.0 0.0 0.00 0.00 0.00 43 953.1
20260505184701 64 0.0 0.0 0.00 0.00 0.00 44 953.0
20260505184301 65 0.0 0.0 0.00 0.00 0.00 44 952.9
20260505184101 65 0.0 0.0 0.00 0.00 0.00 46 953.0
20260505183901 65 0.0 0.0 0.00 0.00 0.00 47 953.0
20260505183701 65 0.0 0.0 0.00 0.00 0.00 49 952.9
20260505183502 65 0.0 0.0 0.00 0.00 0.00 47 952.8
20260505183302 65 0.0 0.0 0.00 0.00 0.00 49 952.9
20260505183101 64 0.0 0.0 0.00 0.00 0.00 50 953.1
20260505182901 65 0.0 0.0 0.00 0.00 0.00 49 953.1
20260505182702 64 0.0 0.0 0.00 0.00 0.00 48 953.0
20260505182502 65 0.0 0.0 0.00 0.00 0.00 47 952.9
20260505182305 65 0.0 0.0 0.00 0.00 0.00 45 952.8
20260505181901 65 0.0 0.0 0.00 0.00 0.00 46 952.8
20260505181702 65 0.0 0.0 0.00 0.00 0.00 45 952.7
20260505181501 65 0.0 0.0 0.00 0.00 0.00 46 952.7
20260505181302 65 0.0 0.0 0.00 0.00 0.00 46 952.7
20260505181101 65 0.0 0.0 0.00 0.00 0.00 49 952.9
20260505180901 65 0.0 0.0 0.00 0.00 0.00 49 952.8
20260505180701 65 0.0 0.0 0.00 0.00 0.00 49 952.8
20260505180502 65 0.0 0.0 0.00 0.00 0.00 50 952.9
20260505180301 65 0.0 0.0 0.00 0.00 0.00 51 952.9
20260505175901 65 0.0 0.0 0.00 0.00 0.00 52 952.9
20260505175701 65 0.0 0.0 0.00 0.00 0.00 52 952.8
20260505175501 66 0.0 0.0 0.00 0.00 0.00 52 952.7
20260505175301 66 0.0 0.0 0.00 0.00 0.00 52 952.7
20260505175101 66 0.0 0.0 0.00 0.00 0.00 52 952.7
20260505174901 66 0.0 0.0 0.00 0.00 0.00 52 952.6
20260505174702 65 0.0 0.0 0.00 0.00 0.00 52 952.6
20260505174502 66 0.0 0.0 0.00 0.00 0.00 52 952.5
20260505174301 66 0.0 0.0 0.00 0.00 0.00 52 952.4
20260505174102 66 0.0 0.0 0.00 0.00 0.00 51 952.4
20260505173902 66 0.0 0.0 0.00 0.00 0.00 51 952.4
20260505173701 66 0.0 0.0 0.00 0.00 0.00 51 952.3
20260505173501 66 0.0 0.0 0.00 0.00 0.00 51 952.3
20260505173101 66 0.0 0.0 0.00 0.00 0.00 50 952.4
20260505172902 67 0.0 0.0 0.00 0.00 0.00 50 952.4
20260505172702 67 0.0 0.0 0.00 0.00 0.00 50 952.3
20260505172501 67 0.0 0.0 0.00 0.00 0.00 50 952.3
20260505172301 67 0.0 0.0 0.00 0.00 0.00 50 952.3
20260505171902 67 0.0 0.0 0.00 0.00 0.00 50 952.2
20260505171701 67 0.0 0.0 0.00 0.00 0.00 49 952.1
20260505171501 68 0.0 0.0 0.00 0.00 0.00 49 952.0
20260505171301 68 0.0 0.0 0.00 0.00 0.00 49 951.9
20260505171101 69 0.0 0.0 0.00 0.00 0.00 48 952.0
20260505170902 69 0.0 0.0 0.00 0.00 0.00 48 951.9
20260505170701 69 0.0 0.0 0.00 0.00 0.00 48 951.9
20260505170501 69 0.0 0.0 0.00 0.00 0.00 48 951.9
20260505170302 68 0.0 0.0 0.00 0.00 0.00 48 951.9
20260505165901 67 0.0 0.0 0.00 0.00 0.00 49 951.8
20260505165502 67 0.0 0.0 0.00 0.00 0.00 49 951.9
20260505165302 67 0.0 0.0 0.00 0.00 0.00 49 951.8
20260505165101 67 0.0 0.0 0.00 0.00 0.00 49 951.8
20260505164902 67 0.0 0.0 0.00 0.00 0.00 49 951.8
20260505164701 67 0.0 0.0 0.00 0.00 0.00 49 951.8
20260505164501 67 0.0 0.0 0.00 0.00 0.00 49 951.8
20260505164302 67 0.0 0.0 0.00 0.00 0.00 49 951.8
20260505164101 67 0.0 0.0 0.00 0.00 0.00 49 951.8
20260505163901 67 0.0 0.0 0.00 0.00 0.00 49 951.7
20260505163701 67 0.0 0.0 0.00 0.00 0.00 49 951.7
20260505163501 67 0.0 0.0 0.00 0.00 0.00 49 951.8
20260505163301 67 0.0 0.0 0.00 0.00 0.00 48 951.7
20260505163101 68 0.0 0.0 0.00 0.00 0.00 48 951.7
20260505162901 68 0.0 0.0 0.00 0.00 0.00 48 951.6
20260505162701 68 0.0 0.0 0.00 0.00 0.00 48 951.6
20260505162501 68 0.0 0.0 0.00 0.00 0.00 47 951.6
20260505162302 68 0.0 0.0 0.00 0.00 0.00 47 951.6
20260505162101 69 0.0 0.0 0.00 0.00 0.00 47 951.6
20260505161902 69 0.0 0.0 0.00 0.00 0.00 47 951.6
20260505161701 69 0.0 0.0 0.00 0.00 0.00 47 951.6
20260505161501 69 0.0 0.0 0.00 0.00 0.00 47 951.6
20260505161301 69 0.0 0.0 0.00 0.00 0.00 46 951.5